Weather History for Ely, NV

Change the Weather History Date:

Thursday, March 7, 2013

  Actual Average Record
Temperature  
Mean Temperature 36 °F 34 °F  
Max Temperature 44 °F 48 °F 62 °F (1972)
Min Temperature 28 °F 21 °F -10 °F (1897)
Degree Days  
Heating Degree Days 29 31  
Month to date heating degree days 184 220  
Since 1 July heating degree days 5403 5557  
Cooling Degree Days 0 0  
Month to date cooling degree days 0 0  
Year to date cooling degree days 0 0  
Moisture  
Dew Point 25 °F    
Average Humidity 62    
Maximum Humidity 92    
Minimum Humidity 31    
Precipitation  
Precipitation T in 0.03 in 1.00 in (1897)
Month to date precipitation 0.02 0.21  
Year to date precipitation 1.47 1.66  
Snow  
Snow T in 0.20 in 10.00 in (1897)
Month to date snowfall T 1.9  
Since 1 July snowfall 55.4 36.8  
Snow Depth T in    
Sea Level Pressure  
Sea Level Pressure 29.85 in    
Wind  
Wind Speed 12 mph (NE)    
Max Wind Speed 23 mph    
Max Gust Speed 30 mph    
Visibility 9 miles    
Events Snow    
T = Trace of Precipitation, MM = Missing Value Source: NWS Daily Summary

Daily Weather History Graph

Daily Weather History Graph

Search for Another Location

Airport:

Trip Planner

Search our weather history database for the weather conditions in past years. The results will help you decide how hot, cold, wet, or windy it might be!

Date:

Astronomy

Mar. 07, 2013 Rise Set
Actual Time 6:02 AM PST 5:38 PM PST
Civil Twilight 5:35 AM PST 6:05 PM PST
Nautical Twilight 5:04 AM PST 6:36 PM PST
Astronomical Twilight 4:33 AM PST 7:07 PM PST
Moon 3:04 AM PST (3/7) 1:32 PM PST (3/7)
Length of Visible Light 12h 29m
Length of Day
11h 35m
Waning Crescent, 19% of the Moon is Illuminated
Mar 7
Waning Crescent
Mar 11
New
Mar 19
First Quarter
Mar 27
Full
Apr 2
Last Quarter

Hourly Weather History & Observations

Time (PST) Temp. Windchill Dew Point Humidity Pressure Visibility Wind Dir Wind Speed Gust Speed Precip Events Conditions
12:53 AM 32.0 °F 23.6 °F 28.0 °F 85% 29.82 in 10.0 mi North 10.4 mph - N/A   Overcast
1:53 AM 32.0 °F 24.2 °F 28.0 °F 85% 29.82 in 10.0 mi North 9.2 mph - N/A   Overcast
2:53 AM 30.9 °F 20.7 °F 28.0 °F 89% 29.80 in 9.0 mi North 13.8 mph - N/A   Mostly Cloudy
3:33 AM 30.2 °F 19.3 °F 28.4 °F 93% 29.89 in 8.0 mi North 15.0 mph - N/A   Overcast
3:41 AM 30.2 °F 18.9 °F 28.4 °F 93% 29.89 in 8.0 mi North 16.1 mph - N/A   Overcast
3:53 AM 28.9 °F 17.3 °F 27.0 °F 92% 29.83 in 9.0 mi North 16.1 mph 24.2 mph N/A   Overcast
4:18 AM 28.4 °F 17.0 °F 26.6 °F 93% 29.91 in 9.0 mi NNE 15.0 mph 20.7 mph N/A   Overcast
4:53 AM 28.4 °F 18.0 °F 26.6 °F 93% 29.91 in 5.0 mi NNE 12.7 mph - N/A Snow Light Snow
5:53 AM 28.0 °F 16.1 °F 26.1 °F 92% 29.87 in 10.0 mi NNE 16.1 mph - 0.00 in   Overcast
6:29 AM 28.4 °F 17.5 °F 26.6 °F 93% 29.92 in 10.0 mi NNE 13.8 mph - N/A   Overcast
6:53 AM 28.0 °F 17.0 °F 26.1 °F 92% 29.91 in 10.0 mi NNE 13.8 mph - N/A   Overcast
7:53 AM 28.9 °F 19.8 °F 26.1 °F 89% 29.91 in 10.0 mi NNE 10.4 mph - N/A   Overcast
8:16 AM 28.4 °F 18.0 °F 26.6 °F 93% 29.93 in 10.0 mi NNE 12.7 mph - N/A   Overcast
8:53 AM 30.9 °F 20.2 °F 26.1 °F 82% 29.91 in 10.0 mi NNE 15.0 mph - N/A   Overcast
9:45 AM 33.8 °F 25.3 °F 26.6 °F 75% 29.92 in 10.0 mi NNE 11.5 mph - N/A   Mostly Cloudy
9:53 AM 34.0 °F 25.5 °F 27.0 °F 75% 29.89 in 10.0 mi NNE 11.5 mph - N/A   Scattered Clouds
10:53 AM 36.0 °F 29.0 °F 27.0 °F 70% 29.88 in 10.0 mi North 9.2 mph - N/A   Mostly Cloudy
11:53 AM 37.9 °F 30.5 °F 27.0 °F 65% 29.84 in 10.0 mi NNE 11.5 mph - N/A   Overcast
12:53 PM 42.1 °F 34.5 °F 25.0 °F 51% 29.80 in 10.0 mi SE 15.0 mph 21.9 mph N/A   Scattered Clouds
1:53 PM 44.1 °F 37.1 °F 23.0 °F 43% 29.77 in 10.0 mi SE 15.0 mph 25.3 mph N/A   Overcast
2:53 PM 44.1 °F 36.5 °F 16.0 °F 32% 29.78 in 10.0 mi South 17.3 mph 23.0 mph N/A   Mostly Cloudy
3:53 PM 42.1 °F 34.9 °F 19.0 °F 40% 29.79 in 10.0 mi SSE 13.8 mph - N/A   Overcast
4:53 PM 41.0 °F 33.1 °F 19.9 °F 43% 29.81 in 10.0 mi South 15.0 mph - N/A   Overcast
5:53 PM 37.9 °F 32.1 °F 21.9 °F 53% 29.83 in 10.0 mi SSE 8.1 mph - N/A   Overcast
6:53 PM 37.9 °F 30.5 °F 19.9 °F 48% 29.83 in 10.0 mi SSE 11.5 mph - N/A   Clear
7:53 PM 36.0 °F 30.3 °F 21.0 °F 55% 29.84 in 10.0 mi South 6.9 mph - N/A   Clear
8:53 PM 35.1 °F 28.6 °F 21.9 °F 59% 29.84 in 10.0 mi South 8.1 mph - N/A   Scattered Clouds
9:53 PM 35.6 °F 27.1 °F 21.2 °F 56% 29.86 in 10.0 mi SSE 12.7 mph - N/A   Overcast
10:53 PM 34.0 °F 25.0 °F 26.1 °F 73% 29.83 in 10.0 mi SSE 12.7 mph - N/A   Overcast
11:53 PM 32.0 °F 24.8 °F 28.9 °F 88% 29.82 in 4.0 mi South 8.1 mph - 0.00 in Snow Light Snow